Wetbulb
60.81 60.79 60.30 60.63 61.85 61.74 61.78 61.93 62.10 62.04 61.53 61.71 62.10 62.07 62.13 61.90 61.80 61.04 61.74 63.70 63.89 63.85 64.47 63.67 63.02 61.41 60.53 60.17 59.61 59.16 58.56 58.01 55.99 56.51 57.85 57.56 55.89 54.64 55.33 54.19 54.35 54.32 51.67
57.73 57.58 57.30 57.14 57.56 57.21 56.72 57.43 57.39 57.18 57.82 58.53 58.96 59.20 58.30 53.62 52.83 53.21 53.74 55.55 56.57 57.63 60.21 60.55 59.92 58.60 59.04 59.50 59.12 58.32 58.13 58.11 57.23 55.09 55.86 55.19 55.61 55.20 55.45 54.88 54.97 54.55 52.21
55.69 54.68 54.40 54.64 54.86 54.72 54.85 54.90 54.86 54.41 54.11 55.44 55.38 53.44 48.44 46.54 45.47 46.97 49.55 51.13 52.20 54.18 54.85 55.93 58.35 59.00 58.92 59.50 58.89 58.11 58.13 58.10 57.35 55.85 54.38 55.69 55.79 53.86 53.47 53.78 54.17 52.89 51.52
52.96 52.02 51.52 51.94 52.41 52.04 52.61 52.81 52.67 53.04 52.27 52.04 52.05 48.82 45.91 43.56 43.19 44.00 45.97 47.76 49.29 48.89 49.81 49.31 49.83 47.31 46.41 48.23 53.03 56.81 57.67 57.13 56.39 55.59 55.09 54.35 54.18 54.50 54.56 51.87 48.50 49.68 48.64
51.50 50.63 50.18 51.08 51.49 51.37 50.85 50.74 50.97 50.71 49.53 48.51 47.21 45.12 43.39 41.53 40.63 41.59 44.72 45.33 44.49 44.22 44.81 45.32 45.32 43.22 42.85 42.12 46.09 45.72 46.30 48.97 52.23 53.30 52.50 52.05 46.86 44.67 49.96 50.38 49.58 47.94 46.79
50.05 49.58 50.02 50.13 49.63 49.09 49.04 48.27 47.67 46.22 46.12 45.12 43.69 42.64 39.95 40.85 37.89 38.18 40.52 42.10 41.25 40.79 41.42 42.19 42.45 41.03 40.97 40.54 39.61 38.74 38.46 41.48 43.16 44.43 46.88 48.43 48.74 50.64 51.58 50.41 48.73 44.04 41.48
48.42 48.17 47.96 47.92 47.26 47.47 46.82 46.26 44.22 42.75 42.98 42.93 43.17 41.75 39.87 39.08 37.96 38.27 37.54 40.60 39.64 39.32 39.20 40.03 40.52 39.84 38.47 40.37 40.84 39.36 39.31 38.14 34.15 41.86 41.42 41.12 41.66 42.78 45.59 45.03 45.67 45.63 43.43
46.46 46.15 46.42 46.14 45.73 45.26 44.39 43.38 42.16 41.50 41.83 42.94 42.84 41.74 41.01 39.43 37.66 37.78 37.86 40.98 40.79 39.71 39.30 37.22 37.76 37.70 36.84 37.19 38.35 38.31 39.14 39.02 38.59 40.30 40.81 41.18 42.86 43.73 44.08 43.66 43.06 41.48 39.84
44.79 44.41 44.53 44.35 43.74 42.93 41.80 40.87 41.26 41.78 41.61 42.14 41.90 42.28 41.20 40.26 37.55 37.36 38.10 39.09 39.34 39.41 39.67 38.78 36.96 35.26 35.65 36.29 35.47 34.11 34.89 35.05 37.40 38.29 38.50 38.74 38.92 38.83 41.12 41.50 36.68 36.46 34.34
43.27 42.75 42.79 43.09 42.14 41.26 41.07 41.72 41.39 41.08 40.41 40.09 40.42 41.51 39.51 40.24 37.79 37.39 37.42 38.85 37.56 38.16 39.14 38.54 36.66 35.97 35.24 35.12 34.15 34.89 33.56 34.15 34.74 35.57 36.57 38.12 39.67 40.18 37.02 41.73 40.07 35.01 34.30
42.62 42.34 41.83 41.32 40.26 40.02 39.27 39.08 38.08 37.40 37.03 36.32 36.27 36.17 36.61 36.63 36.91 36.69 35.42 35.13 36.01 36.25 35.72 35.77 36.81 36.04 35.76 35.48 34.71 35.07 33.87 34.21 34.02 34.42 34.60 35.19 36.25 37.30 38.41 39.29 40.53 38.40 34.14
41.70 40.61 38.66 38.98 39.13 38.26 36.63 36.20 35.76 34.88 33.91 33.18 33.04 32.96 34.10 35.53 35.32 35.62 34.41 34.17 34.36 34.33 33.17 34.26 35.37 35.83 36.00 35.22 33.83 33.83 33.73 32.43 33.53 33.17 33.02 33.04 33.23 33.59 34.67 35.39 37.11 37.83 38.13
38.80 37.05 36.39 36.09 36.91 36.07 35.00 34.20 33.86 34.03 32.79 31.49 31.11 31.08 31.74 33.31 33.62 34.05 33.46 33.85 33.68 32.48 33.92 34.44 34.68 35.39 34.98 32.82 34.12 33.34 31.71 32.30 32.25 31.90 32.10 32.30 33.22 34.44 35.13 34.94 35.46 35.57 35.09
34.98 34.34 34.86 33.97 34.23 33.99 34.15 33.70 33.44 33.23 32.04 31.31 30.89 30.80 28.16 31.59 31.78 32.21 31.85 32.59 33.18 32.94 32.86 33.19 33.16 31.59 32.66 32.82 32.67 33.01 32.31 32.30 32.12 32.04 32.28 33.01 33.20 33.02 32.84 33.68 32.10 32.28 32.25
34.35 33.78 33.29 33.40 33.00 32.67 32.97 32.40 31.74 32.50 32.10 29.98 31.13 31.83 31.24 30.98 31.91 32.77 32.13 32.38 32.73 32.84 32.42 32.87 32.70 32.85 32.63 32.49 32.66 32.67 32.51 32.25 32.09 32.25 32.09 32.28 32.30 32.46 32.10 32.43 32.25 31.92 31.53
32.98 32.67 31.25 31.21 31.26 30.90 29.28 27.12 32.22 33.16 33.53 33.33 33.41 32.29 32.78 33.44 33.38 33.90 33.78 33.79 34.17 33.59 32.69 32.16 32.15 32.00 31.79 31.95 32.15 32.16 31.80 32.28 32.45 32.30 32.27 32.09 32.06 31.89 31.69 31.53 31.92 31.74 30.98
29.03 29.38 28.59 28.54 29.04 28.04 27.58 27.39 25.70 28.21 31.14 31.17 32.44 32.22 29.00 29.45 31.43 32.33 33.43 33.29 33.43 33.56 31.95 31.68 31.92 32.21 31.97 31.95 31.82 31.66 31.65 32.42 32.28 32.09 31.74 31.86 31.87 31.68 31.01 31.15 31.38 31.56 31.21
28.09 28.44 27.02 26.69 25.91 25.11 24.23 24.71 24.89 24.06 23.66 25.01 29.08 28.44 26.88 27.80 30.16 30.91 30.94 30.93 25.53 27.97 28.98 30.40 29.65 31.89 32.16 31.65 31.85 31.66 31.68 31.87 31.72 31.53 31.36 31.50 32.07 31.82 30.82 31.15 31.51 31.36 31.19
27.23 26.78 26.03 25.12 24.61 23.88 24.64 24.31 24.47 23.83 23.34 23.59 24.09 23.94 23.71 26.00 26.09 26.54 27.26 24.99 24.93 24.37 25.21 26.45 29.15 30.57 31.95 31.86 31.71 31.71 31.72 31.68 31.69 31.89 31.36 31.18 32.13 31.17 30.98 31.54 31.85 31.35 31.01
26.62 25.11 24.27 24.11 23.96 23.31 23.22 22.83 22.17 21.77 21.57 21.85 21.62 21.42 21.71 21.41 19.26 19.86 21.92 21.96 22.89 22.92 23.97 24.90 27.98 30.26 31.94 31.71 31.74 31.89 31.69 31.53 31.01 31.86 31.35 31.54 31.71 31.71 31.30 31.48 31.66 31.32 31.00
24.57 24.50 22.64 23.01 22.41 21.90 21.77 21.04 20.69 20.04 19.98 20.14 20.22 21.18 20.27 19.11 18.11 18.77 19.09 19.63 20.11 22.00 22.83 27.78 29.54 31.41 31.71 31.74 31.71 31.74 31.53 31.95 31.21 31.36 31.19 30.65 31.59 31.19 31.41 31.72 31.56 31.36 31.53
23.42 22.73 21.87 21.01 21.41 20.29 20.04 20.39 19.10 18.62 19.11 18.31 18.36 19.28 17.90 17.27 16.96 17.39 17.72 18.59 19.81 22.54 24.94 25.75 25.59 27.15 29.74 29.75 29.95 30.55 31.33 31.33 31.53 31.35 31.69 31.01 30.67 31.56 31.39 31.54 31.53 31.54 31.38
21.74 21.04 20.32 19.91 19.81 16.97 18.08 18.28 16.93 16.63 16.92 16.97 16.37 17.13 15.95 14.85 14.71 15.40 15.19 17.31 19.04 21.61 23.69 23.27 23.39 23.86 25.51 25.81 26.21 27.01 27.25 27.45 29.59 31.17 30.98 31.35 30.67 31.72 31.57 31.51 31.48 31.50 31.33
20.43 19.79 18.73 17.98 17.06 16.51 15.45 14.79 14.89 14.41 14.91 14.72 13.38 14.34 13.71 12.67 12.45 12.77 13.33 15.74 17.02 19.11 20.63 20.79 21.48 21.32 21.03 21.74 22.95 24.03 26.09 26.92 28.71 30.76 31.18 30.79 30.80 31.01 31.39 31.33 31.47 31.35 31.30
19.00 17.65 16.49 16.23 14.78 13.27 12.28 13.55 12.93 12.48 13.23 12.41 10.64 11.39 11.94 10.95 10.76 10.55 10.78 13.59 14.20 15.75 17.57 18.59 18.03 19.28 18.57 18.66 19.17 20.93 21.97 22.74 26.31 29.18 30.98 30.98 30.62 30.65 30.65 31.36 31.45 31.18 31.30
18.22 17.10 16.10 15.16 13.95 13.18 12.33 11.92 11.53 10.53 10.80 10.14 9.08 8.74 8.68 8.56 8.28 8.77 9.14 10.63 11.58 13.77 14.74 15.83 16.02 16.45 17.18 17.72 17.40 19.22 19.70 21.35 24.05 28.53 30.98 30.80 30.26 30.27 30.65 31.38 31.50 31.50 31.27
MSLP
1006.54 1006.78 1007.04 1007.45 1007.69 1007.85 1008.16 1008.39 1008.50 1008.38 1008.36 1008.28 1008.07 1007.78 1007.59 1007.27 1007.10 1006.63 1006.19 1005.71 1005.43 1004.97 1004.44 1004.04 1003.73 1003.72 1004.35 1004.89 1005.21 1005.41 1005.45 1005.77 1005.54 1004.97 1004.66 1004.30 1004.65 1004.67 1004.75 1005.22 1005.57 1005.89 1006.34
1007.55 1007.70 1007.99 1008.24 1008.47 1008.66 1008.84 1008.95 1008.89 1008.87 1008.84 1008.60 1008.55 1008.35 1008.43 1008.66 1008.25 1007.68 1007.13 1006.59 1006.23 1005.69 1005.24 1004.59 1001.80 1002.59 1003.94 1004.49 1004.74 1004.26 1004.17 1003.97 1004.50 1004.26 1003.89 1003.88 1003.80 1003.82 1003.88 1004.28 1004.56 1004.68 1005.10
1008.03 1008.34 1008.70 1009.02 1009.14 1009.31 1009.37 1009.15 1009.25 1009.36 1009.32 1009.07 1009.09 1009.45 1009.77 1009.85 1009.51 1008.99 1008.30 1007.24 1006.64 1006.38 1006.04 1005.74 1005.07 1004.18 1004.02 1004.24 1004.57 1004.41 1003.79 1003.63 1003.49 1003.82 1003.80 1003.72 1003.59 1003.82 1003.84 1003.93 1003.68 1004.01 1004.31
1008.70 1008.95 1009.14 1009.35 1009.55 1009.59 1009.59 1009.84 1010.10 1010.03 1009.82 1010.10 1010.29 1010.58 1010.73 1010.65 1010.24 1009.69 1008.86 1008.36 1007.55 1007.24 1007.23 1007.05 1006.36 1006.61 1006.39 1006.10 1005.19 1004.31 1003.68 1003.33 1002.76 1002.55 1003.02 1003.21 1003.15 1002.98 1003.23 1003.30 1003.72 1004.11 1003.83
1009.11 1009.25 1009.48 1009.61 1009.66 1009.84 1010.08 1010.46 1010.88 1010.72 1010.85 1011.15 1011.18 1011.35 1011.51 1011.37 1011.18 1010.55 1009.68 1009.28 1008.70 1008.08 1007.65 1007.40 1007.91 1007.75 1007.40 1007.03 1006.23 1005.59 1005.01 1004.44 1003.80 1003.55 1002.91 1002.67 1002.59 1002.91 1002.60 1002.55 1002.85 1003.24 1004.08
1009.34 1009.54 1009.83 1010.09 1010.31 1010.65 1010.86 1011.20 1011.50 1011.58 1011.68 1011.76 1011.91 1012.10 1012.26 1011.98 1011.72 1011.34 1010.71 1010.23 1009.84 1009.33 1009.10 1007.99 1008.40 1007.96 1007.58 1007.41 1007.01 1006.88 1006.31 1005.65 1005.01 1004.53 1003.90 1003.34 1002.66 1002.10 1001.82 1002.07 1002.45 1003.28 1004.03
1009.76 1010.19 1010.64 1010.95 1011.18 1011.53 1011.82 1011.84 1012.30 1012.48 1012.47 1012.37 1012.38 1012.43 1012.63 1012.78 1012.41 1011.76 1011.25 1010.92 1010.64 1010.28 1009.70 1009.29 1009.01 1008.78 1008.34 1007.82 1007.50 1007.11 1006.85 1006.59 1006.28 1005.72 1004.95 1004.54 1003.96 1003.14 1002.93 1002.26 1002.49 1002.76 1003.34
1010.67 1011.23 1011.55 1011.74 1012.02 1012.47 1012.59 1012.83 1012.83 1013.03 1013.11 1012.97 1012.85 1013.05 1012.88 1013.03 1012.85 1012.29 1011.74 1011.17 1010.79 1010.48 1010.27 1010.20 1009.89 1009.45 1009.26 1008.79 1008.26 1007.73 1007.29 1007.06 1006.85 1006.48 1006.03 1005.40 1004.84 1004.09 1003.90 1003.83 1003.64 1003.86 1004.09
1011.62 1012.20 1012.56 1012.72 1013.12 1013.45 1013.45 1013.20 1013.21 1013.55 1013.62 1013.54 1013.36 1013.47 1013.42 1013.42 1013.35 1012.91 1012.37 1011.81 1011.30 1010.95 1010.71 1010.52 1010.41 1010.13 1009.67 1009.21 1008.91 1008.53 1007.95 1007.78 1007.28 1006.84 1006.36 1005.87 1005.38 1004.95 1004.55 1004.19 1004.43 1004.59 1004.93
1012.74 1013.14 1013.40 1013.80 1013.98 1014.15 1014.20 1014.11 1014.19 1014.40 1014.37 1014.29 1014.29 1014.22 1014.08 1013.87 1013.64 1013.52 1013.13 1012.39 1011.91 1011.26 1010.83 1010.67 1010.43 1010.44 1009.82 1009.39 1009.19 1008.91 1008.42 1008.22 1007.83 1007.16 1006.72 1006.08 1005.56 1005.20 1004.93 1004.80 1004.62 1004.97 1005.41
1013.50 1013.89 1014.37 1014.16 1014.71 1015.03 1015.11 1015.01 1015.21 1015.20 1015.17 1015.28 1015.26 1015.20 1014.82 1014.61 1014.20 1013.84 1013.51 1013.07 1012.48 1011.79 1011.35 1010.83 1010.57 1010.12 1009.96 1009.67 1009.35 1009.10 1008.77 1008.41 1008.01 1007.55 1007.11 1006.66 1006.20 1005.76 1005.31 1005.02 1004.84 1005.07 1005.41
1014.38 1014.59 1014.85 1015.20 1015.42 1015.77 1015.95 1015.93 1015.87 1015.93 1015.99 1015.94 1015.70 1015.52 1015.16 1014.77 1014.43 1014.10 1013.74 1013.47 1012.92 1012.32 1011.71 1011.10 1010.60 1010.09 1009.75 1009.57 1009.32 1008.95 1008.59 1008.33 1007.95 1007.61 1007.31 1006.90 1006.57 1006.29 1005.90 1005.62 1005.41 1005.35 1005.38
1014.93 1015.58 1015.84 1015.94 1016.10 1016.41 1016.56 1016.42 1016.29 1016.35 1016.56 1016.44 1016.14 1015.82 1015.29 1014.98 1014.73 1014.41 1013.96 1013.34 1012.82 1012.45 1011.95 1011.15 1010.57 1010.00 1009.61 1009.24 1008.95 1008.64 1008.38 1008.23 1007.92 1007.56 1007.33 1007.06 1006.76 1006.40 1006.21 1006.12 1006.03 1005.84 1005.96
1016.16 1016.37 1016.59 1016.59 1016.91 1017.09 1017.08 1017.09 1017.03 1016.95 1016.93 1016.77 1016.41 1015.91 1015.67 1015.31 1014.98 1014.36 1013.85 1013.15 1012.72 1012.23 1011.66 1010.91 1010.35 1009.90 1009.49 1009.09 1008.65 1008.33 1008.05 1007.87 1007.68 1007.42 1007.16 1006.97 1006.67 1006.52 1006.34 1006.28 1006.38 1006.33 1006.38
1016.59 1016.69 1016.88 1017.14 1017.32 1017.42 1017.48 1017.46 1017.53 1017.28 1017.05 1016.69 1016.39 1016.02 1015.69 1015.22 1014.84 1014.32 1013.73 1013.09 1012.58 1012.00 1011.43 1010.74 1010.21 1009.75 1009.34 1008.86 1008.58 1008.17 1007.82 1007.60 1007.43 1007.23 1007.01 1006.79 1006.60 1006.57 1006.46 1006.37 1006.38 1006.53 1006.58
1016.99 1017.43 1017.66 1017.77 1017.86 1017.89 1017.87 1017.90 1017.52 1017.34 1017.11 1016.82 1016.40 1016.05 1015.57 1015.26 1014.86 1014.12 1013.41 1012.90 1012.17 1011.61 1011.29 1010.75 1010.12 1009.62 1009.23 1008.90 1008.49 1008.06 1007.69 1007.47 1007.23 1006.98 1006.72 1006.48 1006.38 1006.33 1006.30 1006.32 1006.29 1006.36 1006.49
1017.91 1018.23 1018.34 1018.40 1018.63 1018.89 1018.89 1018.74 1018.53 1017.96 1017.61 1017.23 1016.86 1016.73 1016.67 1015.94 1014.99 1014.21 1013.44 1012.84 1012.15 1011.74 1011.38 1010.76 1010.10 1009.45 1009.04 1008.67 1008.28 1007.89 1007.52 1007.27 1007.02 1006.82 1006.61 1006.37 1006.19 1006.07 1006.08 1006.06 1006.08 1006.19 1006.45
1018.62 1018.82 1019.18 1019.55 1019.78 1019.89 1019.85 1019.57 1019.22 1018.88 1018.51 1018.06 1017.61 1017.43 1017.05 1016.31 1015.40 1014.72 1013.97 1013.04 1012.57 1012.11 1011.67 1010.93 1010.27 1009.40 1008.75 1008.32 1007.96 1007.62 1007.30 1007.09 1006.87 1006.62 1006.40 1006.23 1006.03 1005.90 1005.83 1005.82 1005.88 1006.06 1006.29
1019.51 1019.85 1020.22 1020.59 1020.73 1020.67 1020.46 1020.14 1019.92 1019.67 1019.36 1018.95 1018.58 1018.15 1017.75 1016.93 1016.26 1015.58 1014.83 1014.26 1013.50 1012.76 1011.94 1011.04 1010.15 1009.36 1008.43 1007.97 1007.63 1007.37 1007.15 1006.93 1006.68 1006.37 1006.13 1005.98 1005.82 1005.71 1005.62 1005.64 1005.75 1005.99 1006.20
1020.52 1020.94 1021.18 1021.35 1021.37 1021.28 1021.06 1020.99 1020.91 1020.63 1020.25 1019.83 1019.42 1019.09 1018.62 1017.78 1017.08 1016.45 1015.77 1015.16 1014.32 1013.42 1012.32 1011.12 1009.86 1008.99 1008.15 1007.63 1007.35 1007.16 1006.93 1006.70 1006.46 1006.18 1005.96 1005.77 1005.65 1005.53 1005.50 1005.54 1005.71 1005.92 1006.10
1021.59 1021.88 1022.10 1022.09 1022.09 1022.13 1022.08 1021.97 1021.80 1021.56 1021.21 1020.79 1020.41 1020.03 1019.63 1019.01 1018.39 1017.58 1016.76 1015.89 1015.07 1013.88 1012.62 1010.93 1009.71 1008.40 1007.80 1007.51 1007.22 1006.99 1006.76 1006.55 1006.30 1006.14 1005.89 1005.68 1005.52 1005.43 1005.37 1005.42 1005.63 1005.88 1006.05
1022.45 1022.82 1022.99 1023.07 1023.20 1023.13 1023.08 1022.92 1022.76 1022.45 1022.03 1021.69 1021.30 1020.72 1020.30 1019.82 1019.21 1018.43 1017.62 1016.61 1015.58 1014.43 1013.23 1012.11 1010.97 1009.85 1008.84 1008.29 1007.81 1007.29 1006.97 1006.75 1006.47 1006.18 1005.94 1005.66 1005.55 1005.43 1005.40 1005.45 1005.66 1005.88 1006.10
1023.43 1023.66 1023.92 1024.15 1024.23 1024.30 1024.01 1023.70 1023.65 1023.43 1023.10 1022.77 1022.35 1021.66 1021.22 1020.76 1020.16 1019.33 1018.54 1017.41 1016.28 1014.95 1013.89 1013.02 1012.06 1011.15 1010.33 1009.61 1008.99 1008.44 1007.88 1007.42 1006.89 1006.39 1006.03 1005.73 1005.57 1005.48 1005.46 1005.57 1005.71 1005.93 1006.13
1024.51 1024.76 1024.86 1025.11 1025.18 1025.06 1024.95 1024.84 1024.81 1024.53 1024.19 1023.83 1023.45 1022.84 1022.34 1021.85 1021.14 1020.35 1019.47 1018.27 1017.10 1015.88 1014.89 1014.03 1013.10 1012.34 1011.53 1010.66 1009.86 1009.17 1008.51 1007.90 1007.21 1006.59 1006.19 1005.89 1005.66 1005.55 1005.55 1005.66 1005.79 1005.94 1006.18
1025.61 1025.74 1025.96 1026.03 1026.09 1026.08 1026.06 1026.02 1025.86 1025.51 1025.11 1024.81 1024.51 1023.95 1023.37 1022.80 1022.05 1021.23 1020.36 1019.18 1018.09 1016.92 1015.80 1014.84 1014.09 1013.09 1012.29 1011.43 1010.64 1009.77 1008.96 1008.17 1007.41 1006.75 1006.22 1005.97 1005.73 1005.57 1005.60 1005.67 1005.88 1006.04 1006.30
1026.59 1026.69 1026.88 1026.99 1026.98 1027.05 1027.07 1026.91 1026.70 1026.44 1026.07 1025.80 1025.48 1025.03 1024.45 1023.77 1023.06 1022.16 1021.22 1020.10 1018.97 1017.77 1016.74 1015.70 1014.81 1013.77 1012.79 1011.83 1011.03 1010.12 1009.23 1008.38 1007.59 1006.79 1006.23 1005.94 1005.71 1005.57 1005.58 1005.68 1005.90 1006.09 1006.35
Wind_Speed
10 10 11 9 9 9 8 7 6 5 6 7 7 7 9 10 11 8 10 10 10 13 11 12 12 6 4 4 4 5 7 6 9 4 7 6 8 10 8 10 12 10 9
7 8 8 7 7 7 7 6 7 7 7 6 7 7 12 13 12 11 9 8 9 11 14 8 15 2 4 6 6 10 10 10 9 14 8 4 8 7 10 11 10 10 11
9 8 7 7 7 7 7 8 7 7 8 9 11 13 12 12 13 13 11 9 9 9 9 13 14 6 7 7 10 9 8 10 9 8 10 4 7 4 5 7 10 11 9
9 7 7 7 8 8 9 9 9 7 11 12 12 12 11 12 13 13 12 11 10 10 11 11 11 12 11 11 10 10 10 9 7 9 11 10 7 8 8 7 4 4 7
9 9 7 8 9 8 9 8 8 12 12 11 11 11 11 12 11 14 12 13 13 13 12 13 13 14 14 10 6 7 7 6 6 8 9 9 4 4 8 6 10 8 4
10 10 9 9 9 8 9 9 11 11 11 11 11 10 12 10 16 17 12 11 13 14 12 13 11 16 16 15 12 12 10 6 5 3 4 8 6 10 9 10 9 5 5
12 11 9 9 10 11 10 11 11 9 9 10 9 7 8 11 17 18 13 5 7 11 11 10 8 8 12 10 10 9 10 13 9 7 6 5 4 4 5 3 3 2 2
12 11 9 10 11 10 11 10 9 8 9 8 8 7 5 8 16 20 16 10 7 6 7 8 9 10 11 11 8 8 7 8 8 6 7 7 6 6 7 3 4 5 3
12 11 11 11 11 9 8 7 8 9 9 6 5 6 8 7 13 17 14 9 8 7 5 4 6 6 12 14 8 7 6 6 8 11 8 8 9 10 6 3 3 2 3
11 11 11 10 10 8 10 11 10 9 9 8 9 10 9 9 11 16 15 7 7 6 5 5 5 7 9 10 5 6 7 6 7 8 6 6 7 5 8 4 1 2 3
11 11 9 9 10 11 10 10 10 9 9 9 8 8 10 10 11 15 20 10 8 8 8 7 6 10 10 9 8 4 4 7 6 4 4 4 4 4 4 4 4 2 2
8 11 11 9 9 9 10 9 9 10 9 8 9 6 5 7 9 11 19 17 14 7 7 6 7 12 10 9 7 8 9 6 3 3 3 3 2 3 3 3 4 4 3
12 10 9 7 10 10 8 9 6 7 8 8 6 6 6 5 4 12 16 13 11 8 7 12 16 12 11 7 9 9 4 3 3 2 2 2 2 3 2 1 3 5 5
10 9 9 10 9 9 7 6 6 4 5 6 6 6 4 8 8 8 7 9 9 7 8 8 7 7 7 6 4 4 2 3 3 3 2 3 2 2 1 1 1 1 1
9 9 8 7 8 8 6 3 3 2 3 5 5 5 6 7 5 12 9 8 8 7 8 5 4 4 5 4 4 3 3 3 3 2 3 3 2 1 1 0 1 1 1
10 8 8 7 6 5 4 4 8 10 12 13 13 10 4 6 12 17 16 14 14 11 5 6 6 5 5 5 5 4 2 4 3 3 3 3 3 3 3 2 1 2 2
10 9 6 7 8 9 8 8 8 8 12 15 16 21 23 17 21 22 19 17 13 10 5 6 7 6 5 5 4 4 3 3 3 3 3 3 3 3 3 3 2 2 2
10 11 9 8 8 7 6 6 6 7 8 8 12 19 24 26 23 23 24 16 6 7 7 9 8 8 6 5 4 4 3 3 2 3 3 3 3 4 2 3 3 3 2
9 9 8 6 6 6 7 7 8 8 9 8 9 12 16 23 23 22 22 9 9 9 9 10 9 10 6 4 4 3 3 3 3 4 2 2 3 2 2 3 3 4 3
10 11 8 7 7 8 8 9 9 9 9 9 9 11 11 12 12 12 11 11 11 12 11 12 10 9 7 4 3 3 3 3 2 3 3 2 2 3 3 3 4 3 2
7 8 10 8 8 8 8 9 9 9 9 9 9 11 16 10 11 11 11 11 11 11 13 11 11 8 4 3 3 2 3 2 2 3 3 2 2 1 2 3 3 3 3
8 8 9 9 8 9 9 8 9 9 10 10 10 11 15 10 10 11 11 11 12 11 11 11 11 10 8 7 7 6 4 4 3 3 4 2 2 1 2 3 3 2 2
9 10 9 9 8 8 8 9 9 9 10 10 10 10 11 11 11 11 12 12 13 11 10 11 11 11 10 9 8 8 7 6 6 4 4 3 1 1 1 2 3 3 3
10 9 9 8 7 8 8 8 9 10 10 10 10 10 10 11 11 12 12 12 12 12 11 11 11 14 12 10 9 9 8 8 7 5 5 3 2 1 2 3 4 3 5
8 8 8 7 7 7 7 8 8 8 9 9 9 10 10 11 11 11 12 12 12 12 13 12 11 14 15 16 15 16 15 15 10 9 3 4 3 2 2 3 3 3 5
8 8 7 7 7 7 7 7 8 8 9 9 9 10 10 11 11 11 12 13 13 12 15 11 14 19 17 13 16 18 17 15 12 12 4 3 2 1 2 3 6 4 6
Wind_Direction
70 70 67 58 55 56 52 41 29 32 19 12 7 10 12 13 5 4 360 332 293 289 279 255 241 221 229 216 212 217 214 217 254 254 230 214 223 216 220 210 219 213 208
81 81 77 70 65 62 53 45 32 30 16 18 18 24 33 17 5 4 -0 2 8 359 332 319 324 52 212 243 230 217 216 201 228 251 259 265 234 221 217 214 211 210 200
77 69 66 68 65 61 56 46 37 36 24 28 28 48 38 19 4 350 339 348 7 1 355 358 332 292 254 236 244 248 246 249 222 240 265 260 247 217 222 222 202 206 200
93 86 80 78 72 61 53 44 31 26 38 37 51 41 36 21 12 356 349 345 18 27 14 6 21 17 9 359 345 309 278 261 234 219 248 255 236 233 231 217 200 217 173
92 77 66 72 61 53 54 49 30 47 49 44 41 42 33 30 13 1 3 6 6 13 22 25 22 14 9 15 354 351 344 341 319 278 257 251 220 209 217 197 199 178 183
88 72 59 62 56 51 54 45 56 45 46 48 41 43 34 26 6 4 9 21 21 23 17 29 18 19 15 16 33 34 31 8 1 312 311 304 275 240 220 201 194 174 200
74 64 52 61 56 57 54 54 54 44 41 42 41 39 41 21 11 8 356 28 33 28 22 12 8 10 10 4 9 17 24 21 22 357 3 338 338 340 330 356 335 274 270
68 61 49 58 57 55 56 55 55 42 38 36 29 16 28 25 13 14 3 10 13 20 30 17 6 1 2 356 353 1 7 12 6 5 9 1 7 25 37 36 32 96 41
69 60 48 55 57 52 50 52 51 44 37 20 18 4 9 41 17 12 3 6 357 350 7 15 14 354 350 1 6 352 355 353 339 348 355 354 3 14 34 32 24 61 37
68 62 51 62 52 38 42 37 35 28 26 12 18 21 19 5 23 15 3 343 344 336 328 330 339 345 347 0 359 346 350 339 339 342 341 350 355 2 12 18 235 100 91
71 68 56 52 64 44 38 30 32 23 18 13 7 5 5 5 355 3 1 356 347 341 336 334 324 334 338 345 358 338 315 315 317 327 325 330 339 350 10 10 55 105 133
83 71 56 48 47 45 39 34 34 26 18 9 2 359 350 350 342 355 354 349 338 327 316 306 306 311 317 326 324 317 325 312 305 315 322 322 321 328 348 27 39 65 47
71 72 65 40 54 44 38 31 28 21 14 2 351 346 336 327 327 347 344 339 337 333 311 304 305 311 308 301 293 301 294 298 296 289 302 276 269 278 288 36 55 70 58
77 61 61 49 48 38 32 17 9 18 14 349 333 332 329 342 346 335 332 338 334 322 315 308 296 296 288 279 292 293 272 270 284 288 281 277 288 312 297 121 41 17 73
86 74 65 51 38 30 23 17 356 305 331 321 313 309 325 321 326 317 322 336 327 319 313 307 314 315 319 315 307 299 301 289 283 264 264 256 256 270 261 159 143 158 145
63 54 43 36 23 12 3 331 333 350 355 348 344 351 313 305 321 321 327 325 315 320 318 310 312 305 302 303 304 303 286 298 274 267 265 253 246 235 223 190 173 179 148
62 49 35 25 23 24 19 14 3 353 353 351 353 31 17 350 346 342 335 331 332 337 317 328 313 298 296 291 290 294 295 296 277 287 290 281 263 247 212 193 175 150 150
55 41 43 51 37 25 10 5 4 5 4 4 11 19 6 356 351 357 355 345 345 344 335 323 324 305 290 283 286 287 291 290 280 278 277 277 274 266 214 190 175 153 153
50 55 49 44 34 25 18 16 17 13 10 6 6 12 1 356 357 357 352 347 332 330 323 316 309 306 291 278 278 280 278 284 283 279 260 271 273 237 219 180 162 167 156
52 52 50 45 34 26 23 22 19 13 8 6 8 6 358 354 358 352 351 346 347 336 323 310 296 295 289 275 280 285 282 280 294 302 287 291 278 238 215 174 164 166 173
56 56 46 44 37 29 25 24 20 11 7 7 5 2 3 1 353 348 347 345 339 328 327 327 326 296 294 308 307 306 307 301 308 318 297 303 293 247 186 152 139 139 142
57 55 49 39 36 31 24 22 21 11 10 10 1 358 7 2 355 350 345 339 334 329 332 346 344 346 350 7 1 358 357 3 350 335 320 315 307 241 164 140 140 141 142
58 55 50 43 35 28 26 28 22 15 10 13 2 360 7 357 352 349 344 340 342 338 347 348 348 352 358 -0 358 353 353 345 327 322 324 323 313 229 163 149 157 149 151
56 54 50 45 37 32 26 28 21 16 13 13 4 2 2 355 351 348 346 342 343 342 348 353 351 354 349 349 348 345 340 336 328 318 326 326 312 193 172 155 157 139 139
54 55 49 42 36 32 25 24 21 11 15 14 6 0 358 356 352 350 346 343 344 345 348 349 350 347 351 346 346 343 337 331 327 321 312 315 306 217 166 145 152 141 133
56 52 50 43 40 34 28 24 23 16 15 14 7 0 357 355 351 347 348 345 345 345 343 347 348 345 347 348 345 340 337 333 329 326 315 309 310 254 157 151 151 137 138